Location: Kawakawa
(35.3830°S, 174.0670°E)
Time: 20:10:09
(UTC+13:00)

Explorer 7 - Pass Details

Date: 15 December 2019
Orbit: 485 x 679 km, 50.3° (Epoch: 20 January)

Event Time Altitude Azimuth Distance (km) Brightness Sun altitude
Rises 08:20:52 0° 220° (SW) 2,580 10.0 25.5°
Reaches altitude 10° 08:23:48 10° 196° (SSW) 1,700 9.4 26.1°
Maximum altitude 08:26:07 15° 159° (SSE) 1,409 9.5 26.5°
Drops below altitude 10° 08:28:28 10° 121° (ESE) 1,721 10.7 27.0°
Sets 08:31:28 0° 97° (E) 2,631 11.6 27.6°
